Location: Unspecified
(0.0000°N, 0.0000°E)
Time: 00:29:55
(UTC+00:00)

MANDRAKE 2 BAKER - Pass Details

Date: 15 February 2026
Orbit: 402 x 407 km, 97.7° (Epoch: 7 March)

Event Time Altitude Azimuth Distance (km) Brightness Sun altitude
Rises 04:50:17 0° 139° (SE) 2,338 ? -20.4°
Reaches altitude 10° 04:53:00 10° 112° (ESE) 1,469 ? -19.8°
Maximum altitude 04:54:42 14° 79° (E) 1,253 ? -19.4°
Drops below altitude 10° 04:56:24 10° 46° (NE) 1,461 ? -18.9°
Sets 04:59:05 0° 19° (NNE) 2,312 ? -18.3°
